Time,TemperatureF,DewpointF,PressureIn,WindDirection,WindDirectionDegrees,WindSpeedMPH,WindSpeedGustMPH,Humidity,HourlyPrecipIn,Conditions,Clouds,dailyrainin,SoftwareType,DateUTC
2013-08-21 00:00:00,70.0,67.6,29.99,North,0,0.0,0.0,92,0.00,,,0.00,meteo_script,2013-08-21 04:00:00,
2013-08-21 00:05:00,70.0,67.6,29.99,North,0,0.0,0.0,92,0.00,,,0.00,meteo_script,2013-08-21 04:05:00,
2013-08-21 00:10:00,69.9,67.5,29.99,North,0,0.0,0.0,92,0.00,,,0.00,meteo_script,2013-08-21 04:10:00,
2013-08-21 00:15:00,69.8,67.6,29.99,North,0,0.0,0.0,92,0.00,,,0.00,meteo_script,2013-08-21 04:15:00,
2013-08-21 00:20:00,69.7,67.4,30.00,North,0,0.0,0.0,92,0.00,,,0.00,meteo_script,2013-08-21 04:20:00,
2013-08-21 00:25:00,69.6,67.3,30.00,North,0,0.0,0.0,92,0.00,,,0.00,meteo_script,2013-08-21 04:25:00,
2013-08-21 00:35:00,69.5,67.3,30.00,North,0,0.0,1.0,92,0.00,,,0.00,meteo_script,2013-08-21 04:35:00,
2013-08-21 00:40:00,69.4,67.3,30.00,North,0,0.0,0.0,93,0.00,,,0.00,meteo_script,2013-08-21 04:40:00,
2013-08-21 00:45:00,69.4,67.2,30.00,North,0,0.0,0.0,93,0.00,,,0.00,meteo_script,2013-08-21 04:45:00,
2013-08-21 00:55:00,69.2,67.1,30.00,North,0,0.0,0.0,93,0.00,,,0.00,meteo_script,2013-08-21 04:55:00,
2013-08-21 01:00:00,69.1,67.2,30.00,North,0,0.0,0.0,93,0.00,,,0.00,meteo_script,2013-08-21 05:00:00,
2013-08-21 01:05:00,69.0,67.1,30.00,North,0,0.0,0.0,93,0.00,,,0.00,meteo_script,2013-08-21 05:05:00,
2013-08-21 01:15:00,68.8,67.0,29.99,North,0,0.0,0.0,94,0.00,,,0.00,meteo_script,2013-08-21 05:15:00,
2013-08-21 01:20:00,68.8,67.0,30.00,North,0,0.0,0.0,94,0.00,,,0.00,meteo_script,2013-08-21 05:20:00,
2013-08-21 01:25:00,68.8,67.0,30.00,North,0,0.0,0.0,94,0.00,,,0.00,meteo_script,2013-08-21 05:25:00,
2013-08-21 01:35:00,68.6,66.8,29.99,North,0,0.0,0.0,94,0.00,,,0.00,meteo_script,2013-08-21 05:35:00,
2013-08-21 01:40:00,68.5,66.8,29.99,North,0,0.0,0.0,94,0.00,,,0.00,meteo_script,2013-08-21 05:40:00,
2013-08-21 01:50:00,68.4,66.9,29.99,North,0,0.0,0.0,95,0.00,,,0.00,meteo_script,2013-08-21 05:50:00,
2013-08-21 01:55:00,68.3,66.6,29.99,North,0,0.0,0.0,94,0.00,,,0.00,meteo_script,2013-08-21 05:55:00,
2013-08-21 02:00:00,68.3,66.7,29.99,North,0,0.0,0.0,94,0.00,,,0.00,meteo_script,2013-08-21 06:00:00,
2013-08-21 02:10:00,68.1,66.6,30.00,North,0,0.0,0.0,95,0.00,,,0.00,meteo_script,2013-08-21 06:10:00,
2013-08-21 02:15:00,68.0,66.5,30.00,North,0,0.0,0.0,95,0.00,,,0.00,meteo_script,2013-08-21 06:15:00,
2013-08-21 02:20:00,67.9,66.4,30.00,North,0,0.0,0.0,95,0.00,,,0.00,meteo_script,2013-08-21 06:20:00,
2013-08-21 02:30:00,67.9,66.4,30.00,North,0,0.0,0.0,95,0.00,,,0.00,meteo_script,2013-08-21 06:30:00,
2013-08-21 02:35:00,67.8,66.3,30.00,North,0,0.0,0.0,95,0.00,,,0.00,meteo_script,2013-08-21 06:35:00,
2013-08-21 02:45:00,67.7,66.2,30.00,North,0,0.0,0.0,95,0.00,,,0.00,meteo_script,2013-08-21 06:45:00,
2013-08-21 02:50:00,67.6,66.3,30.00,North,0,0.0,0.0,95,0.00,,,0.00,meteo_script,2013-08-21 06:50:00,
2013-08-21 02:55:00,67.5,66.0,30.00,North,0,0.0,0.0,95,0.00,,,0.00,meteo_script,2013-08-21 06:55:00,
2013-08-21 03:05:00,67.4,66.0,30.00,North,0,0.0,0.0,95,0.00,,,0.00,meteo_script,2013-08-21 07:05:00,
2013-08-21 03:10:00,67.3,65.9,30.00,North,0,0.0,0.0,95,0.00,,,0.00,meteo_script,2013-08-21 07:10:00,
2013-08-21 03:15:00,67.3,66.0,30.00,North,0,0.0,0.0,95,0.00,,,0.00,meteo_script,2013-08-21 07:15:00,
2013-08-21 03:20:00,67.2,66.0,30.00,North,0,0.0,0.0,96,0.00,,,0.00,meteo_script,2013-08-21 07:20:00,
2013-08-21 03:25:00,67.1,65.9,30.00,North,0,0.0,0.0,96,0.00,,,0.00,meteo_script,2013-08-21 07:25:00,
2013-08-21 03:30:00,67.1,65.9,30.00,North,0,0.0,0.0,96,0.00,,,0.00,meteo_script,2013-08-21 07:30:00,
2013-08-21 03:40:00,66.9,65.8,29.99,North,0,0.0,0.0,96,0.00,,,0.00,meteo_script,2013-08-21 07:40:00,
2013-08-21 03:45:00,66.9,65.7,29.99,North,0,0.0,0.0,96,0.00,,,0.00,meteo_script,2013-08-21 07:45:00,
2013-08-21 03:55:00,66.8,65.7,30.00,North,0,0.0,0.0,96,0.00,,,0.00,meteo_script,2013-08-21 07:55:00,
2013-08-21 04:00:00,66.7,65.7,30.00,North,0,0.0,0.0,96,0.00,,,0.00,meteo_script,2013-08-21 08:00:00,
2013-08-21 04:05:00,66.6,65.7,30.00,North,0,0.0,0.0,97,0.00,,,0.00,meteo_script,2013-08-21 08:05:00,
2013-08-21 04:10:00,66.6,65.7,30.00,North,0,0.0,0.0,97,0.00,,,0.00,meteo_script,2013-08-21 08:10:00,
2013-08-21 04:20:00,66.5,65.6,30.00,North,0,0.0,0.0,97,0.00,,,0.00,meteo_script,2013-08-21 08:20:00,
2013-08-21 04:25:00,66.4,65.7,30.00,North,0,0.0,0.0,97,0.00,,,0.00,meteo_script,2013-08-21 08:25:00,
2013-08-21 04:35:00,66.1,65.5,30.00,North,0,0.0,0.0,98,0.00,,,0.00,meteo_script,2013-08-21 08:35:00,
2013-08-21 04:40:00,66.0,65.4,30.00,North,0,0.0,0.0,98,0.00,,,0.00,meteo_script,2013-08-21 08:40:00,
2013-08-21 04:50:00,65.7,65.4,30.00,North,0,0.0,0.0,99,0.00,,,0.00,meteo_script,2013-08-21 08:50:00,
2013-08-21 04:55:00,65.6,65.3,30.01,North,0,0.0,0.0,99,0.00,,,0.00,meteo_script,2013-08-21 08:55:00,
2013-08-21 05:00:00,65.6,65.3,30.01,North,0,0.0,0.0,99,0.00,,,0.00,meteo_script,2013-08-21 09:00:00,
2013-08-21 05:10:00,65.5,65.2,30.01,North,0,0.0,0.0,99,0.00,,,0.00,meteo_script,2013-08-21 09:10:00,
2013-08-21 05:15:00,65.5,65.2,30.01,North,0,0.0,0.0,99,0.00,,,0.00,meteo_script,2013-08-21 09:15:00,
2013-08-21 05:20:00,65.5,65.2,30.01,North,0,0.0,0.0,99,0.00,,,0.00,meteo_script,2013-08-21 09:20:00,
2013-08-21 05:30:00,65.4,65.1,30.01,North,0,0.0,0.0,99,0.00,,,0.00,meteo_script,2013-08-21 09:30:00,
2013-08-21 05:35:00,65.3,65.3,30.01,North,0,0.0,0.0,100,0.00,,,0.00,meteo_script,2013-08-21 09:35:00,
2013-08-21 05:45:00,65.2,65.2,30.01,North,0,0.0,0.0,100,0.00,,,0.00,meteo_script,2013-08-21 09:45:00,
2013-08-21 05:50:00,65.2,65.2,30.02,North,0,0.0,0.0,100,0.00,,,0.00,meteo_script,2013-08-21 09:50:00,
2013-08-21 06:00:00,65.1,65.1,30.02,North,0,0.0,0.0,100,0.00,,,0.00,meteo_script,2013-08-21 10:00:00,
2013-08-21 06:05:00,65.0,65.0,30.02,North,0,0.0,0.0,100,0.00,,,0.00,meteo_script,2013-08-21 10:05:00,
2013-08-21 06:10:00,65.0,65.0,30.02,North,0,0.0,0.0,100,0.00,,,0.00,meteo_script,2013-08-21 10:10:00,
2013-08-21 06:20:00,64.9,64.9,30.02,North,0,0.0,0.0,100,0.00,,,0.00,meteo_script,2013-08-21 10:20:00,
2013-08-21 06:25:00,64.9,64.9,30.02,North,0,0.0,0.0,100,0.00,,,0.00,meteo_script,2013-08-21 10:25:00,
2013-08-21 06:35:00,64.8,64.8,30.02,North,0,0.0,0.0,100,0.00,,,0.00,meteo_script,2013-08-21 10:35:00,
2013-08-21 06:40:00,64.8,64.8,30.02,North,0,0.0,0.0,100,0.00,,,0.00,meteo_script,2013-08-21 10:40:00,
2013-08-21 06:45:00,64.9,64.9,30.02,North,0,0.0,0.0,100,0.00,,,0.00,meteo_script,2013-08-21 10:45:00,
2013-08-21 06:55:00,65.0,65.0,30.02,North,0,0.0,0.0,100,0.00,,,0.00,meteo_script,2013-08-21 10:55:00,
2013-08-21 07:00:00,65.1,65.1,30.03,North,0,0.0,0.0,100,0.00,,,0.00,meteo_script,2013-08-21 11:00:00,
2013-08-21 07:05:00,65.2,65.2,30.03,North,0,0.0,0.0,100,0.00,,,0.00,meteo_script,2013-08-21 11:05:00,
2013-08-21 07:15:00,65.3,65.3,30.03,North,0,0.0,0.0,100,0.00,,,0.00,meteo_script,2013-08-21 11:15:00,
2013-08-21 07:20:00,65.4,65.4,30.03,North,0,0.0,0.0,100,0.00,,,0.00,meteo_script,2013-08-21 11:20:00,
2013-08-21 07:30:00,65.6,65.6,30.03,North,0,0.0,0.0,100,0.00,,,0.00,meteo_script,2013-08-21 11:30:00,
2013-08-21 07:35:00,65.8,65.8,30.03,North,0,0.0,0.0,100,0.00,,,0.00,meteo_script,2013-08-21 11:35:00,
2013-08-21 07:40:00,65.8,65.8,30.03,North,0,0.0,0.0,100,0.00,,,0.00,meteo_script,2013-08-21 11:40:00,
2013-08-21 07:50:00,66.2,66.2,30.03,North,0,0.0,0.0,100,0.00,,,0.00,meteo_script,2013-08-21 11:50:00,
2013-08-21 07:55:00,66.4,66.4,30.03,North,0,0.0,0.0,100,0.00,,,0.00,meteo_script,2013-08-21 11:55:00,
2013-08-21 08:05:00,66.8,66.8,30.03,North,0,0.0,0.0,100,0.00,,,0.00,meteo_script,2013-08-21 12:05:00,
2013-08-21 08:10:00,67.0,67.0,30.03,North,0,0.0,0.0,100,0.00,,,0.00,meteo_script,2013-08-21 12:10:00,
2013-08-21 08:15:00,67.2,67.2,30.03,North,0,0.0,0.0,100,0.00,,,0.00,meteo_script,2013-08-21 12:15:00,
2013-08-21 08:25:00,67.8,67.8,30.03,North,0,0.0,0.0,100,0.00,,,0.00,meteo_script,2013-08-21 12:25:00,
2013-08-21 08:30:00,68.1,68.1,30.03,North,0,0.0,0.0,100,0.00,,,0.00,meteo_script,2013-08-21 12:30:00,
2013-08-21 08:35:00,68.5,68.5,30.03,North,0,0.0,0.0,100,0.00,,,0.00,meteo_script,2013-08-21 12:35:00,
2013-08-21 08:45:00,69.2,69.2,30.03,North,0,0.0,0.0,100,0.00,,,0.00,meteo_script,2013-08-21 12:45:00,
2013-08-21 08:50:00,69.6,69.5,30.03,North,0,0.0,0.0,99,0.00,,,0.00,meteo_script,2013-08-21 12:50:00,
2013-08-21 09:00:00,70.4,70.0,30.03,North,0,0.0,0.0,98,0.00,,,0.00,meteo_script,2013-08-21 13:00:00,
2013-08-21 09:05:00,70.7,70.2,30.03,North,0,0.0,0.0,98,0.00,,,0.00,meteo_script,2013-08-21 13:05:00,
2013-08-21 09:10:00,71.0,70.4,30.03,North,0,0.0,1.0,98,0.00,,,0.00,meteo_script,2013-08-21 13:10:00,
2013-08-21 09:20:00,71.7,70.5,30.03,North,0,0.0,0.0,96,0.00,,,0.00,meteo_script,2013-08-21 13:20:00,
2013-08-21 09:25:00,72.0,70.8,30.03,North,0,0.0,0.0,96,0.00,,,0.00,meteo_script,2013-08-21 13:25:00,
2013-08-21 09:30:00,72.1,71.0,30.03,North,0,0.0,0.0,96,0.00,,,0.00,meteo_script,2013-08-21 13:30:00,
2013-08-21 09:40:00,72.6,71.3,30.03,North,0,0.0,0.0,96,0.00,,,0.00,meteo_script,2013-08-21 13:40:00,
2013-08-21 09:45:00,72.9,71.5,30.03,North,0,0.0,1.0,95,0.00,,,0.00,meteo_script,2013-08-21 13:45:00,
2013-08-21 09:55:00,73.6,71.7,30.03,North,0,0.0,0.0,94,0.00,,,0.00,meteo_script,2013-08-21 13:55:00,
2013-08-21 10:00:00,74.0,71.9,30.03,North,0,0.0,1.0,93,0.00,,,0.00,meteo_script,2013-08-21 14:00:00,
2013-08-21 10:10:00,74.7,72.9,30.03,North,0,0.0,0.0,94,0.00,,,0.00,meteo_script,2013-08-21 14:10:00,
2013-08-21 10:15:00,75.1,72.9,30.03,North,0,0.0,0.0,93,0.00,,,0.00,meteo_script,2013-08-21 14:15:00,
2013-08-21 10:20:00,75.4,72.6,30.03,North,0,0.0,0.0,91,0.00,,,0.00,meteo_script,2013-08-21 14:20:00,
2013-08-21 10:30:00,76.5,72.6,30.03,North,0,0.0,1.0,88,0.00,,,0.00,meteo_script,2013-08-21 14:30:00,
2013-08-21 10:35:00,77.3,72.8,30.02,North,0,0.0,0.0,86,0.00,,,0.00,meteo_script,2013-08-21 14:35:00,
2013-08-21 10:45:00,79.4,73.4,30.02,North,0,0.0,0.0,82,0.00,,,0.00,meteo_script,2013-08-21 14:45:00,
2013-08-21 10:50:00,80.2,73.8,30.02,SW,230,0.0,1.0,81,0.00,,,0.00,meteo_script,2013-08-21 14:50:00,
2013-08-21 10:55:00,81.3,74.1,30.02,North,0,0.0,0.0,78,0.00,,,0.00,meteo_script,2013-08-21 14:55:00,
2013-08-21 11:05:00,82.6,74.7,30.02,North,0,0.0,0.0,77,0.00,,,0.00,meteo_script,2013-08-21 15:05:00,
2013-08-21 11:10:00,83.7,76.0,30.02,SW,230,0.1,1.0,77,0.00,,,0.00,meteo_script,2013-08-21 15:10:00,
2013-08-21 11:20:00,85.6,75.9,30.02,SW,230,0.2,2.0,73,0.00,,,0.00,meteo_script,2013-08-21 15:20:00,
2013-08-21 11:25:00,86.8,75.8,30.02,North,0,0.1,1.0,70,0.00,,,0.00,meteo_script,2013-08-21 15:25:00,
2013-08-21 11:35:00,87.5,76.0,30.02,SW,230,0.3,2.0,68,0.00,,,0.00,meteo_script,2013-08-21 15:35:00,
2013-08-21 11:40:00,88.4,74.8,30.02,SW,230,0.2,1.0,64,0.00,,,0.00,meteo_script,2013-08-21 15:40:00,
2013-08-21 11:45:00,88.1,75.8,30.02,SW,230,0.1,2.0,67,0.00,,,0.00,meteo_script,2013-08-21 15:45:00,
2013-08-21 11:55:00,89.4,76.3,30.01,SW,230,0.3,1.0,65,0.00,,,0.00,meteo_script,2013-08-21 15:55:00,
2013-08-21 12:00:00,89.8,75.6,30.01,SW,230,0.1,1.0,63,0.00,,,0.00,meteo_script,2013-08-21 16:00:00,
2013-08-21 12:05:00,90.5,76.0,30.01,North,0,0.2,1.0,62,0.00,,,0.00,meteo_script,2013-08-21 16:05:00,
2013-08-21 12:15:00,90.4,75.9,30.01,SSW,201,0.3,2.0,62,0.00,,,0.00,meteo_script,2013-08-21 16:15:00,
2013-08-21 12:20:00,91.0,76.1,30.00,SSW,201,0.4,3.0,62,0.00,,,0.00,meteo_script,2013-08-21 16:20:00,
2013-08-21 12:25:00,91.4,76.6,30.00,WSW,238,0.4,3.0,62,0.00,,,0.00,meteo_script,2013-08-21 16:25:00,
2013-08-21 12:35:00,91.5,76.7,30.00,SW,229,0.7,2.0,62,0.00,,,0.00,meteo_script,2013-08-21 16:35:00,
2013-08-21 12:40:00,92.3,76.9,30.00,SW,229,0.6,2.0,61,0.00,,,0.00,meteo_script,2013-08-21 16:40:00,
2013-08-21 12:50:00,91.9,75.9,30.00,SW,228,0.3,1.0,59,0.00,,,0.00,meteo_script,2013-08-21 16:50:00,
2013-08-21 12:55:00,91.7,75.9,29.99,SSW,206,0.8,6.0,60,0.00,,,0.00,meteo_script,2013-08-21 16:55:00,
2013-08-21 13:05:00,92.5,76.1,30.00,SW,216,0.6,2.0,59,0.00,,,0.00,meteo_script,2013-08-21 17:05:00,
2013-08-21 13:10:00,92.2,76.7,29.99,SW,216,0.5,3.0,60,0.00,,,0.00,meteo_script,2013-08-21 17:10:00,
2013-08-21 13:15:00,92.6,75.6,29.99,SW,216,0.6,3.0,58,0.00,,,0.00,meteo_script,2013-08-21 17:15:00,
2013-08-21 13:25:00,92.5,75.6,29.99,SW,222,1.3,3.0,58,0.00,,,0.00,meteo_script,2013-08-21 17:25:00,
2013-08-21 13:30:00,92.5,76.1,29.99,SW,215,0.8,3.0,59,0.00,,,0.00,meteo_script,2013-08-21 17:30:00,
2013-08-21 13:35:00,92.6,75.4,29.98,WSW,242,0.6,3.0,57,0.00,,,0.00,meteo_script,2013-08-21 17:35:00,
2013-08-21 13:45:00,92.3,75.9,29.98,SSW,192,1.1,2.0,59,0.00,,,0.00,meteo_script,2013-08-21 17:45:00,
2013-08-21 13:50:00,92.3,76.1,29.98,SSW,192,0.5,3.0,59,0.00,,,0.00,meteo_script,2013-08-21 17:50:00,
2013-08-21 14:00:00,92.7,76.5,29.98,North,0,0.5,1.0,59,0.00,,,0.00,meteo_script,2013-08-21 18:00:00,
2013-08-21 14:05:00,93.1,77.4,29.98,SSW,193,0.1,1.0,60,0.00,,,0.00,meteo_script,2013-08-21 18:05:00,
2013-08-21 14:15:00,94.0,76.7,29.97,SSW,193,0.5,3.0,57,0.00,,,0.00,meteo_script,2013-08-21 18:15:00,
2013-08-21 14:20:00,93.2,75.9,29.97,SSW,193,0.6,2.0,57,0.00,,,0.00,meteo_script,2013-08-21 18:20:00,
2013-08-21 14:25:00,92.8,76.5,29.97,SSW,193,0.5,2.0,59,0.00,,,0.00,meteo_script,2013-08-21 18:25:00,
2013-08-21 14:35:00,92.2,76.3,29.97,North,0,0.1,3.0,60,0.00,,,0.00,meteo_script,2013-08-21 18:35:00,
2013-08-21 14:40:00,92.6,76.1,29.97,SSW,193,0.4,3.0,59,0.00,,,0.00,meteo_script,2013-08-21 18:40:00,
2013-08-21 14:45:00,92.9,75.8,29.97,SSW,193,0.7,3.0,57,0.00,,,0.00,meteo_script,2013-08-21 18:45:00,
2013-08-21 14:55:00,92.7,75.9,29.97,SW,220,1.2,4.0,58,0.00,,,0.00,meteo_script,2013-08-21 18:55:00,
2013-08-21 15:00:00,92.8,74.9,29.96,SW,220,0.9,4.0,56,0.00,,,0.00,meteo_script,2013-08-21 19:00:00,
2013-08-21 15:10:00,92.2,74.5,29.96,SW,215,1.0,2.0,56,0.00,,,0.00,meteo_script,2013-08-21 19:10:00,
2013-08-21 15:15:00,92.1,75.2,29.96,SW,215,0.4,2.0,58,0.00,,,0.00,meteo_script,2013-08-21 19:15:00,
2013-08-21 15:25:00,92.3,75.6,29.96,SW,216,0.7,6.0,58,0.00,,,0.00,meteo_script,2013-08-21 19:25:00,
2013-08-21 15:30:00,92.0,75.3,29.96,SW,216,0.9,4.0,58,0.00,,,0.00,meteo_script,2013-08-21 19:30:00,
2013-08-21 15:35:00,91.7,76.1,29.96,SSW,207,0.8,3.0,60,0.00,,,0.00,meteo_script,2013-08-21 19:35:00,
2013-08-21 15:40:00,91.9,75.4,29.96,SSW,207,0.4,1.0,59,0.00,,,0.00,meteo_script,2013-08-21 19:40:00,
2013-08-21 15:45:00,91.6,75.4,29.96,SSW,207,0.2,1.0,59,0.00,,,0.00,meteo_script,2013-08-21 19:45:00,
2013-08-21 15:50:00,91.4,75.5,29.96,SSW,207,0.4,3.0,60,0.00,,,0.00,meteo_script,2013-08-21 19:50:00,
2013-08-21 16:00:00,90.6,74.1,29.95,SW,222,1.1,5.0,58,0.00,,,0.00,meteo_script,2013-08-21 20:00:00,
2013-08-21 16:05:00,90.2,74.9,29.95,SW,225,0.8,2.0,61,0.00,,,0.00,meteo_script,2013-08-21 20:05:00,
2013-08-21 16:10:00,89.9,73.8,29.95,SW,225,0.4,3.0,59,0.00,,,0.00,meteo_script,2013-08-21 20:10:00,
2013-08-21 16:20:00,88.8,73.3,29.95,SSW,208,1.0,3.0,60,0.00,,,0.00,meteo_script,2013-08-21 20:20:00,
2013-08-21 16:25:00,88.4,73.9,29.94,SSW,208,0.7,1.0,62,0.00,,,0.00,meteo_script,2013-08-21 20:25:00,
2013-08-21 16:35:00,88.1,72.9,29.94,WSW,241,1.1,5.0,61,0.00,,,0.00,meteo_script,2013-08-21 20:35:00,
2013-08-21 16:40:00,87.6,73.7,29.94,North,0,0.8,2.0,63,0.00,,,0.00,meteo_script,2013-08-21 20:40:00,
2013-08-21 16:50:00,87.3,73.1,29.94,SW,228,0.3,1.0,63,0.00,,,0.00,meteo_script,2013-08-21 20:50:00,
2013-08-21 16:55:00,87.1,73.4,29.94,SW,228,0.4,2.0,64,0.00,,,0.00,meteo_script,2013-08-21 20:55:00,
2013-08-21 17:05:00,86.7,73.5,29.94,SW,229,0.3,2.0,65,0.00,,,0.00,meteo_script,2013-08-21 21:05:00,
2013-08-21 17:10:00,86.3,73.0,29.94,SSW,209,0.8,7.0,64,0.00,,,0.00,meteo_script,2013-08-21 21:10:00,
2013-08-21 17:20:00,85.7,73.4,29.94,SW,224,0.8,3.0,67,0.00,,,0.00,meteo_script,2013-08-21 21:20:00,
2013-08-21 17:25:00,85.4,73.7,29.94,SW,224,0.6,2.0,68,0.00,,,0.00,meteo_script,2013-08-21 21:25:00,
2013-08-21 17:30:00,85.1,73.8,29.93,SW,224,0.3,2.0,69,0.00,,,0.00,meteo_script,2013-08-21 21:30:00,
2013-08-21 17:40:00,84.7,74.2,29.93,SW,224,0.3,2.0,71,0.00,,,0.00,meteo_script,2013-08-21 21:40:00,
2013-08-21 17:45:00,84.5,74.4,29.93,SW,224,0.4,2.0,72,0.00,,,0.00,meteo_script,2013-08-21 21:45:00,
2013-08-21 17:55:00,84.0,74.7,29.93,SW,223,0.3,3.0,73,0.00,,,0.00,meteo_script,2013-08-21 21:55:00,
2013-08-21 18:00:00,83.8,74.2,29.93,SW,222,0.4,3.0,73,0.00,,,0.00,meteo_script,2013-08-21 22:00:00,
2013-08-21 18:05:00,83.6,74.5,29.93,SW,223,0.5,3.0,74,0.00,,,0.00,meteo_script,2013-08-21 22:05:00,
2013-08-21 18:15:00,83.2,74.1,29.93,SW,222,0.2,1.0,74,0.00,,,0.00,meteo_script,2013-08-21 22:15:00,
2013-08-21 18:20:00,82.9,74.1,29.93,SSW,209,0.3,4.0,75,0.00,,,0.00,meteo_script,2013-08-21 22:20:00,
2013-08-21 18:30:00,82.4,74.0,29.93,SW,218,0.2,2.0,75,0.00,,,0.00,meteo_script,2013-08-21 22:30:00,
2013-08-21 18:35:00,82.2,74.2,29.93,North,0,0.1,1.0,77,0.00,,,0.00,meteo_script,2013-08-21 22:35:00,
2013-08-21 18:40:00,81.9,74.1,29.93,North,0,0.0,0.0,77,0.00,,,0.00,meteo_script,2013-08-21 22:40:00,
2013-08-21 18:50:00,81.4,73.9,29.92,SW,218,0.0,1.0,78,0.00,,,0.00,meteo_script,2013-08-21 22:50:00,
2013-08-21 18:55:00,81.2,73.9,29.93,North,0,0.0,1.0,78,0.00,,,0.00,meteo_script,2013-08-21 22:55:00,
2013-08-21 19:05:00,80.8,74.0,29.92,North,0,0.0,1.0,79,0.00,,,0.00,meteo_script,2013-08-21 23:05:00,
2013-08-21 19:10:00,80.5,73.8,29.92,North,0,0.0,0.0,80,0.00,,,0.00,meteo_script,2013-08-21 23:10:00,
2013-08-21 19:15:00,80.2,73.6,29.92,SW,218,0.0,2.0,80,0.00,,,0.00,meteo_script,2013-08-21 23:15:00,
2013-08-21 19:25:00,79.7,73.3,29.92,North,0,0.0,1.0,81,0.00,,,0.00,meteo_script,2013-08-21 23:25:00,
2013-08-21 19:30:00,79.4,73.2,29.92,SW,218,0.0,1.0,81,0.00,,,0.00,meteo_script,2013-08-21 23:30:00,
2013-08-21 19:40:00,79.0,72.7,29.92,SW,218,0.0,2.0,81,0.00,,,0.00,meteo_script,2013-08-21 23:40:00,
2013-08-21 19:45:00,78.8,72.6,29.92,SW,218,0.1,1.0,81,0.00,,,0.00,meteo_script,2013-08-21 23:45:00,
2013-08-21 19:50:00,78.7,72.6,29.92,SW,218,0.1,1.0,81,0.00,,,0.00,meteo_script,2013-08-21 23:50:00,
2013-08-21 20:00:00,78.3,72.2,29.92,North,0,0.0,1.0,81,0.00,,,0.00,meteo_script,2013-08-22 00:00:00,
2013-08-21 20:05:00,78.2,71.8,29.93,SW,218,0.0,1.0,81,0.00,,,0.00,meteo_script,2013-08-22 00:05:00,
2013-08-21 20:15:00,77.8,71.8,29.93,SW,218,0.1,1.0,82,0.00,,,0.00,meteo_script,2013-08-22 00:15:00,
2013-08-21 20:20:00,77.7,71.4,29.93,SW,218,0.0,1.0,81,0.00,,,0.00,meteo_script,2013-08-22 00:20:00,
2013-08-21 20:30:00,77.5,71.5,29.93,North,0,0.0,0.0,81,0.00,,,0.00,meteo_script,2013-08-22 00:30:00,
2013-08-21 20:35:00,77.4,71.5,29.93,SW,218,0.0,1.0,81,0.00,,,0.00,meteo_script,2013-08-22 00:35:00,
2013-08-21 20:40:00,77.4,71.5,29.93,North,0,0.0,1.0,82,0.00,,,0.00,meteo_script,2013-08-22 00:40:00,
2013-08-21 20:50:00,77.3,71.4,29.93,North,0,0.0,1.0,82,0.00,,,0.00,meteo_script,2013-08-22 00:50:00,
2013-08-21 20:55:00,77.2,71.3,29.93,North,0,0.0,0.0,82,0.00,,,0.00,meteo_script,2013-08-22 00:55:00,
2013-08-21 21:05:00,76.9,71.4,29.93,North,0,0.0,0.0,83,0.00,,,0.00,meteo_script,2013-08-22 01:05:00,
2013-08-21 21:15:00,76.5,71.3,29.93,North,0,0.0,1.0,84,0.00,,,0.00,meteo_script,2013-08-22 01:15:00,
2013-08-21 21:25:00,76.2,71.3,29.93,North,0,0.0,0.0,85,0.00,,,0.00,meteo_script,2013-08-22 01:25:00,
2013-08-21 21:30:00,76.0,71.1,29.93,North,0,0.0,0.0,85,0.00,,,0.00,meteo_script,2013-08-22 01:30:00,
2013-08-21 21:40:00,75.6,71.1,29.93,North,0,0.0,0.0,86,0.00,,,0.00,meteo_script,2013-08-22 01:40:00,
2013-08-21 21:45:00,75.4,70.9,29.93,North,0,0.0,0.0,86,0.00,,,0.00,meteo_script,2013-08-22 01:45:00,
2013-08-21 21:50:00,75.2,71.1,29.93,North,0,0.0,0.0,87,0.00,,,0.00,meteo_script,2013-08-22 01:50:00,
2013-08-21 22:00:00,74.7,71.3,29.93,North,0,0.0,0.0,89,0.00,,,0.00,meteo_script,2013-08-22 02:00:00,
2013-08-21 22:05:00,74.3,71.3,29.93,North,0,0.0,0.0,90,0.00,,,0.00,meteo_script,2013-08-22 02:05:00,
2013-08-21 22:15:00,73.5,70.7,29.93,North,0,0.0,0.0,91,0.00,,,0.00,meteo_script,2013-08-22 02:15:00,
2013-08-21 22:20:00,73.3,70.6,29.92,North,0,0.0,0.0,91,0.00,,,0.00,meteo_script,2013-08-22 02:20:00,
2013-08-21 22:25:00,73.1,70.6,29.93,North,0,0.0,0.0,92,0.00,,,0.00,meteo_script,2013-08-22 02:25:00,
2013-08-21 22:35:00,72.7,70.5,29.93,North,0,0.0,0.0,92,0.00,,,0.00,meteo_script,2013-08-22 02:35:00,
2013-08-21 22:40:00,72.6,70.2,29.92,North,0,0.0,0.0,92,0.00,,,0.00,meteo_script,2013-08-22 02:40:00,
2013-08-21 22:45:00,72.5,70.2,29.93,North,0,0.0,0.0,92,0.00,,,0.00,meteo_script,2013-08-22 02:45:00,
2013-08-21 22:55:00,72.6,70.2,29.93,North,0,0.0,0.0,92,0.00,,,0.00,meteo_script,2013-08-22 02:55:00,
2013-08-21 23:00:00,72.6,70.1,29.92,North,0,0.0,0.0,92,0.00,,,0.00,meteo_script,2013-08-22 03:00:00,
2013-08-21 23:10:00,72.9,70.1,29.92,North,0,0.0,0.0,91,0.00,,,0.00,meteo_script,2013-08-22 03:10:00,
2013-08-21 23:15:00,73.1,70.3,29.92,North,0,0.0,2.0,91,0.00,,,0.00,meteo_script,2013-08-22 03:15:00,
2013-08-21 23:20:00,73.2,70.1,29.92,North,0,0.1,1.0,90,0.00,,,0.00,meteo_script,2013-08-22 03:20:00,
2013-08-21 23:25:00,73.3,70.2,29.92,SW,218,0.1,1.0,90,0.00,,,0.00,meteo_script,2013-08-22 03:25:00,
2013-08-21 23:35:00,73.4,70.3,29.92,North,0,0.0,1.0,90,0.00,,,0.00,meteo_script,2013-08-22 03:35:00,
2013-08-21 23:40:00,73.4,70.5,29.92,SW,218,0.0,1.0,90,0.00,,,0.00,meteo_script,2013-08-22 03:40:00,
2013-08-21 23:50:00,73.1,70.5,29.91,North,0,0.1,1.0,91,0.00,,,0.00,meteo_script,2013-08-22 03:50:00,
2013-08-21 23:55:00,72.9,70.4,29.91,North,0,0.0,1.0,92,0.00,,,0.00,meteo_script,2013-08-22 03:55:00,